Location: Aldenham
(51.6667°N, 0.3500°W)
Time: 00:34:05
(UTC+00:00)

Altair - Pass Details

Date: 25 February 2026
Orbit: 1502 x 1682 km, 47.2° (Epoch: 9 March)

Event Time Altitude Azimuth Distance (km) Brightness Sun altitude
Rises 08:15:32 0° 284° (WNW) 4,670 9.4 10.7°
Reaches altitude 10° 08:18:44 10° 278° (W) 3,703 9.0 11.1°
Maximum altitude 08:27:17 42° 212° (SSW) 2,107 8.4 12.3°
Drops below altitude 10° 08:36:07 10° 146° (SE) 3,819 11.2 13.4°
Sets 08:39:28 0° 139° (SE) 4,828 11.8 13.8°
